Location: Ostrava
(49.8330°N, 18.2830°E)
Time: 11:35:31
(UTC+02:00)

Explorer 7 - Visible Passes

Search period start: 17 April 2014 00:00
Search period end: 27 April 2014 00:00
Orbit: 493 x 710 km, 50.3° (Epoch: 17 April)

Date Brightness Start Highest point End Pass type
(mag) Time Alt. Az. Time Alt. Az. Time Alt. Az.
17 Apr 8.3 03:52:50 23° S 03:54:37 31° SE 03:58:50 10° E visible
18 Apr 9.6 02:26:45 11° ESE 02:26:45 11° ESE 02:27:23 10° ESE visible
18 Apr 7.7 04:03:27 25° SSW 04:05:39 44° SSE 04:10:15 10° E visible
19 Apr 9.0 02:37:19 19° ESE 02:37:19 19° ESE 02:39:46 10° E visible
19 Apr 7.3 04:14:02 23° SW 04:16:46 61° SSE 04:21:33 10° ENE visible
20 Apr 8.3 02:47:51 29° SE 02:47:51 29° SE 02:51:25 10° E visible
20 Apr 7.1 04:24:33 18° WSW 04:27:58 78° SSE 04:32:49 10° ENE visible
21 Apr 7.6 02:58:20 43° SSE 02:58:21 43° SSE 03:02:49 10° E visible
21 Apr 7.2 04:35:02 13° W 04:39:12 90° N 04:44:05 10° E visible
22 Apr 9.7 01:32:05 11° E 01:32:05 11° E 01:32:17 10° E visible
22 Apr 7.1 03:08:47 53° SSW 03:09:27 60° SSE 03:14:07 10° ENE visible
22 Apr 7.2 04:45:51 10° W 04:50:27 84° N 04:55:21 10° E visible
23 Apr 9.1 01:42:31 17° E 01:42:31 17° E 01:43:56 10° E visible
23 Apr 7.0 03:19:12 44° WSW 03:20:36 77° SSE 03:25:21 10° ENE visible
23 Apr 7.3 04:57:06 10° W 05:01:43 85° N 05:06:38 10° E visible
24 Apr 8.5 01:52:54 27° E 01:52:54 27° E 01:55:20 10° E visible
24 Apr 7.0 03:29:35 30° W 03:31:49 90° N 03:36:36 10° E visible
25 Apr 7.8 02:03:16 43° ESE 02:03:16 43° ESE 02:06:36 10° ENE visible
25 Apr 7.1 03:39:57 20° W 03:43:02 84° N 03:47:50 10° E visible
26 Apr 7.0 02:13:37 69° ESE 02:13:37 69° ESE 02:17:49 10° ENE visible
26 Apr 7.1 03:50:18 13° W 03:54:16 85° N 03:59:05 10° E visible
